Regional Weather Roundup
Issued by NWS Newport/Morehead, NC

Current Version | Previous Version | Text Only | Print | Product List | Glossary On
Versions: 1 2 3 4 5 6 7 8 9 10 11 12 13 14 15 16 17 18 19 20 21 22 23 24 25 26 27 28 29 30 31 32 33 34 35 36 37 38 39 40 41 42 43 44 45 46 47 48 49 50
730
ASUS42 KMHX 230225
RWRMHX
WEATHER ROUNDUP FOR EASTERN NORTH CAROLINA
NATIONAL WEATHER SERVICE NEWPORT/MOREHEAD CITY NC
1000 PM EDT TUE AUG 22 2017

NOTE: "FAIR" INDICATES FEW OR NO CLOUDS BELOW 12,000 FEET
WITH NO SIGNIFICANT WEATHER AND/OR OBSTRUCTIONS TO VISIBILITY

NCZ015>017-031-032-045>047-102-103-230300-
NORTH COAST

CITY           SKY/WX    TMP DP  RH WIND       PRES   REMARKS
EDENTON        CLEAR     82  76  81 S12G17    29.96S
ELIZABETH CITY CLEAR     81  77  88 S10       29.94F
KITTY HAWK     CLEAR     81  75  82 SW9G17    29.95S
MANTEO         CLEAR     82  76  82 SW17      29.97S

$$

NCZ045>047-081-094-103-104-230300-
CENTRAL COAST

CITY           SKY/WX    TMP DP  RH WIND       PRES   REMARKS
FRISCO         CLEAR     83  78  85 SW12      29.99S

$$

NCZ095-097-098-100-101-230300-
SOUTHERN COAST

CITY           SKY/WX    TMP DP  RH WIND       PRES   REMARKS
BEAUFORT       PTCLDY    82  77  84 SW16      29.99S
CEDAR ISLAND   NOT AVBL
JACKSONVILLE   PTCLDY    79  77  94 SW6       29.98R
PINEY ISLAND   CLEAR    N/A N/A N/A S7        29.98S
WILMINGTON     CLEAR     80  75  84 S7        29.99S


$$

NCZ011>013-027>030-043-044-078>080-089-090>093-098-230300-
COASTAL PLAIN

CITY           SKY/WX    TMP DP  RH WIND       PRES   REMARKS
AHOSKIE          N/A     77  75  94 S7        29.93F
CLINTON        CLEAR     79  76  90 S3        29.98S
ELIZABETHTOWN  NOT AVBL
GOLDSBORO      CLEAR     81  81 100 S5        29.96R
GREENVILLE     PTCLDY    81  77  89 SW10      29.98S
HAVELOCK       CLEAR     81  75  82 S7        29.99S
KENANSVILLE    CLEAR     79  73  83 CALM      29.98S
KINSTON        CLOUDY    81  75  83 S10       29.97S
NEW BERN       CLEAR     79  77  94 S10       29.99R
RICHLANDS      CLEAR     77  75  93 SW3       29.99R
ROCKY MOUNT    CLEAR     79  75  87 S6        29.94S
WASHINGTON     CLEAR     79  76  89 S6        29.97R
WHITEVILLE     CLOUDY    79  75  88 CALM      29.98S

$$

AMZ130-135-150-152-154-156-158-170-250-252-270-ANZ085-086-088-633-658-670-230300-
MARINE OBSERVATIONS

STATION/POSITION TIME  TEMP    WIND        PRES    WAVE   SWELL
                       AIR SEA DIR/SP/G            HT/PER HT/PER
                 (UTC) (F)     (DEG/KT/KT) (MB)    (FT/S) (FT/S)
CHESAPEAKE LIGHT NOT AVBL
64 E VA BEACH    0150   80 80  200/ 14/ 16 1014.6    4/ 9   2/ 9
DUCK             0200   83 72  210/ 14/ 18 1013.7
2 E DUCK         0200      77                N/A     3/11   2/11
OREGON INLET     0200   83 87  200/ 18/ 20 1014.7
13E OREGON INLT  0148      80                N/A     4/10   3/10
HATTERAS CG      0200   82 84  220/  9/ 14 1015.6
DIAMOND BUOY     0150   84 86  220/ 17/ 21 1015.4    5/ 9   3/ 9
CAPE LOOKOUT     0200   82     220/ 12/ 15 1015.5
BEAUFORT LAB     0200   83 81  210/ 11/ 16 1015.0
30 SE NEW RVR IN 0208   81 84  230/ 14/ 17 1015.8
30 SE NEW RVR IN 0143      84                N/A     5/10   2/11
27 SE WRIGHTSVLE 0208   83 84  200/ 14/ 19 1015.7
5 SE WRIGHTSVLE  0208   83 83  220/ 12/ 17 1015.1
225 S CAPE HAT   0150   83 84  150/  8/  8 1017.2    4/10   3/10
41 SE CHARLESTON 0200   83 84  200/ 12/ 14 1015.4

$$




USA.gov is the U.S. government's official web portal to all federal, state and local government web resources and services.